Flag for Norway Weather past 2 weeks in Nærbø, Norway

Now
53 °F

Cool.


Feels Like: 49 °F
Forecast: 54 / 56 °F
Wind: 12 mph from South

Location: Obrestad

Current Time: Oct 25, 2014 at 5:43:13 PM

Latest Report: Oct 25, 2014 at 5:00 PM


Visibility: N/A

Pressure: 29.75 "Hg

Humidity: 86%

Dew point: 49 °F

Location of NærbøLocation

Historic Weather in Nærbø — Graph

°F

Nærbø temperature yesterday

Maximum temperature yesterday: 55 °F (at 5:00 AM)
Minimum temperature yesterday: 53 °F (at 2:00 PM)
Average temperature yesterday: 54 °F

Past Weeks' High & Low Weather Summary

 TemperatureHumidityPressure
High57 °F (Oct 11, 12:00 PM)97% (Oct 18, 5:00 PM)29.99 "Hg (Oct 18, 5:00 PM)
Low33 °F (Oct 17, 8:00 AM)51% (Oct 16, 3:00 PM)29.12 "Hg (Oct 21, 5:00 PM)
Average50 °F83%29.75 "Hg
* Reported Oct 10 4:00 PM — Oct 25 4:00 PM, Nærbø, Weather by CustomWeather, © 2014

Note: Actual official high and low records may vary slightly from our data, if they occured in-between our weather recording intervals... More about our weather records

Advertising

Nærbø weather history for previous 24 hours

 ConditionsComfort  
Time TempWeatherWind HumidityBarometerVisibility
4:00 PM
Oct 25
53 °FCool.12 mph84%29.77 "HgN/A
3:00 PM53 °FCool.12 mph82%29.77 "HgN/A
2:00 PM53 °FCool.12 mph80%29.78 "HgN/A
1:00 PM53 °FCool.10 mph81%29.78 "HgN/A
12:00 PM53 °FCool.10 mph81%29.79 "HgN/A
11:00 AM52 °FCool.9 mph82%29.78 "HgN/A
10:00 AM53 °FCool.9 mph79%29.79 "HgN/A
9:00 AM52 °FCool.9 mph79%29.77 "HgN/A
8:00 AM52 °FCool.8 mph78%29.76 "HgN/A
7:00 AM52 °FCool.8 mph79%29.75 "HgN/A
6:00 AM52 °FCool.8 mph81%29.75 "HgN/A
5:00 AM52 °FCool.8 mph83%29.75 "HgN/A
4:00 AM52 °FCool.10 mph80%29.74 "HgN/A
3:00 AM53 °FCool.10 mph80%29.74 "HgN/A
2:00 AM53 °FCool.10 mph77%29.75 "HgN/A
1:00 AM53 °FCool.9 mph80%29.75 "HgN/A
12:00 AM53 °FCool.8 mph72%29.75 "HgN/A
11:00 PM
Oct 24
53 °FCool.8 mph85%29.75 "HgN/A
10:00 PM53 °FCool.8 mph86%29.76 "HgN/A
9:00 PM53 °FCool.8 mph85%29.76 "HgN/A
8:00 PM53 °FCool.7 mph84%29.76 "HgN/A
7:00 PM53 °FCool.7 mph83%29.78 "HgN/A
6:00 PM53 °FCool.7 mph84%29.77 "HgN/A
5:00 PM53 °FCool.7 mph85%29.78 "HgN/A
Weather by CustomWeather, © 2014

See weather overviewHow to use our weather pages